Regional Weather Roundup
Issued by NWS

Home | Current Version | Previous Version | Text Only | Print | Product List | Glossary Off
Versions: 1 2 3 4 5 6 7 8 9 10 11 12 13 14 15 16 17 18 19 20 21 22 23 24 25 26 27 28 29 30 31 32 33 34 35 36 37 38 39 40 41 42 43 44 45 46 47 48 49 50

000
ASUS45 KABQ 040301
RWRNM
NEW MEXICO REGIONAL WEATHER ROUNDUP
NATIONAL WEATHER SERVICE ALBUQUERQUE NM
900 PM MDT TUE MAY 03 2016

NOTE: "FAIR" MEANS FEW OR NO CLOUDS BELOW 12,000 FEET AGL WITH NO
       SIGNIFICANT WEATHER OR OBSTRUCTIONS TO VISION.

      THIS PRODUCT IS RELEASED AS TWO VERSIONS.  ONE VERSION NEAR
      THE TOP OF THE HOUR CONTAINING PRELIMINARY DATA FROM ALBUQUERQUE
      AND OTHER STATIONS.  A FINAL VERSION WITH ADDITIONAL DATA IS
      ISSUED ABOUT 10 MINUTES AFTER THE HOUR.

NMZ501-503-504-510>518-040400-
NORTHWEST PLATEAU/NORTHCENTRAL MOUNTAINS

CITY           SKY/WX    TMP DP  RH WIND       PRES   REMARKS
FARMINGTON     FAIR      60  32  34 SW5       30.18R
SANTA FE       FAIR      56  32  40 SE10      30.25R
TAOS           FAIR      46  27  46 E12       30.29R
ANGEL FIRE     FAIR      37  30  78 W3        30.37R

$$
NMZ402-403-502-505>509-040400-
WESTCENTRAL MOUNTAINS/SOUTHWEST MOUNTAINS

CITY           SKY/WX    TMP DP  RH WIND       PRES   REMARKS
GALLUP         FAIR      55  29  36 E3        30.24R
GRANTS         FAIR      51  34  52 SW5       30.27R
SILVER CITY      N/A     66  28  24 E10       30.17R

$$
NMZ407-409-411-412-040400-
SOUTHERN DESERTS

CITY           SKY/WX    TMP DP  RH WIND       PRES   REMARKS
LORDSBURG      FAIR      64  19  17 E7        30.06R
DEMING         FAIR      70  27  20 NE9       30.09R
HOLLOMAN AFB   FAIR      69  30  23 NE10      30.10R
ALAMOGORDO     FAIR      70  30  23 E10       30.12R
T OR C         FAIR      66  27  23 NE6       30.14R

$$
NMZ519>523-040400-
CENTRAL VALLEYS/CENTRAL HIGHLANDS

CITY           SKY/WX    TMP DP  RH WIND       PRES   REMARKS
ALBUQUERQUE    FAIR      65  29  25 E12       30.20R
DOUBLE EAGLE   CLEAR     55  32  41 VRB3      30.22R
CLINES CORNERS FAIR      49  29  46 E5        30.29R
BELEN          FAIR      60  22  23 SW5       30.19R
SOCORRO        NOT AVBL

$$
NMZ524>526-539-540-040400-
SOUTHCENTRAL MOUNTAINS

CITY           SKY/WX    TMP DP  RH WIND       PRES   REMARKS
RUIDOSO        NOT AVBL

$$
NMZ527>531-040400-
NORTHEAST HIGHLANDS/NORTHEAST PLAINS

CITY           SKY/WX    TMP DP  RH WIND       PRES   REMARKS
LAS VEGAS      FAIR      51  31  46 NW3       30.30R
RATON          FAIR      47  25  42 N13       30.27R
CLAYTON        FAIR      51  31  46 N7        30.20R

$$
NMZ532>537-040400-
EASTCENTRAL PLAINS

CITY           SKY/WX    TMP DP  RH WIND       PRES   REMARKS
TUCUMCARI      FAIR      52  32  46 N8        30.17R
CANNON AFB     FAIR      56  28  35 NE8       30.19R
CLOVIS AIRPORT FAIR      54  32  43 N8        30.20R

$$
NMZ028-029-538-040400-
SOUTHEAST PLAINS

CITY           SKY/WX    TMP DP  RH WIND       PRES   REMARKS
ROSWELL        FAIR      63  32  31 E6        30.14R
ARTESIA        FAIR      63  36  36 NE7       30.14R
CARLSBAD       FAIR      71  35  26 N10       30.11R
HOBBS            N/A     61  36  39 NE9       30.16R


$$




USA.gov is the U.S. government's official web portal to all federal, state and local government web resources and services.